Regional Weather Roundup
Issued by NWS Sioux Falls, SD

Home | Current Version | Previous Version | Text Only | Print | Product List | Glossary Off
Versions: 1 2 3 4 5 6 7 8 9 10 11 12 13 14 15 16 17 18 19 20 21 22 23 24 25 26 27 28 29 30 31 32 33 34 35 36 37 38 39 40 41 42 43 44 45 46 47 48 49 50

000
ASUS43 KFSD 281210
RWRFSD

WEATHER ROUNDUP FOR SE SOUTH DAKOTA/SW MINNESOTA/NW IOWA
NATIONAL WEATHER SERVICE SIOUX FALLS SD
700 AM CDT FRI JUL 28 2017

NOTE: "FAIR" INDICATES FEW OR NO CLOUDS BELOW 12,000 FEET WITH NO
SIGNIFICANT WEATHER AND OR OBSTRUCTIONS TO VISIBILITY.


SDZ038>040-050-052>070-281300-
SOUTHEAST SOUTH DAKOTA

CITY           SKY/WX    TMP DP  RH WIND       PRES   REMARKS
BROOKINGS      CLOUDY    66  63  90 E3        30.10S
CHAMBERLAIN    CLOUDY    69  66  90 S6        30.07S
6HR MIN TEMP:  69; 6HR MAX TEMP:  71;

HURON          CLOUDY    66  64  93 SE3       30.08R
6HR MIN TEMP:  66; 6HR MAX TEMP:  68;

MADISON        FAIR      61  61 100 CALM      30.11S
MITCHELL       CLOUDY    66  64  93 SE3       30.08S
6HR MIN TEMP:  66; 6HR MAX TEMP:  69;

SIOUX FALLS    CLOUDY    63  62  97 CALM      30.10R
6HR MIN TEMP:  60; 6HR MAX TEMP:  66;

WINNER         CLOUDY    69  63  81 SE7       30.07S
$$

MNZ071-072-080-081-089-090-097-098-281300-
SOUTHWEST MINNESOTA

CITY           SKY/WX    TMP DP  RH WIND       PRES   REMARKS
FAIRMONT       MOCLDY    63  62  97 N5        30.09R FOG
JACKSON        PTCLDY    59  59 100 CALM      30.10R
LUVERNE        CLOUDY    61  57  88 N3        30.11R
MARSHALL       CLOUDY    64  62  93 MISG      30.10R FOG
6HR MIN TEMP:  62; 6HR MAX TEMP:  64;

MONTEVIDEO     CLOUDY    64  61  88 CALM      30.09S
PIPESTONE      CLOUDY    64  59  82 CALM      30.11R
REDWOOD FALLS  PTCLDY    64  60  87 N3        30.08R
TRACY          CLOUDY    66  63  92 CALM      30.10S
WINDOM         MOCLDY    61  59  94 CALM      30.10R
WORTHINGTON    CLEAR     57  55  93 NW3       30.11R
$$

IAZ001>003-012>014-020>022-031-032-NEZ013-014-SDZ071-281300-
NORTHWEST IOWA

CITY           SKY/WX    TMP DP  RH WIND       PRES   REMARKS
CHEROKEE       CLEAR     61  61 100 CALM      30.08S
DENISON          N/A     63  63 100 N5        30.08R
ESTHERVILLE    CLEAR     58  58 100 NW5       30.08R
ORANGE CITY    CLEAR     66  61  82 CALM      30.09R
SHELDON        CLOUDY    59  57  94 CALM      30.07S
SIOUX CITY     CLEAR     65  64  97 CALM      30.07R
6HR MIN TEMP:  62; 6HR MAX TEMP:  71;

SPENCER        CLEAR     58  57  97 NW3       30.09R
6HR MIN TEMP:  56; 6HR MAX TEMP:  61;

STORM LAKE     CLEAR     63  61  94 N3        30.08R
$$

ABBREVIATIONS USED IN REMARKS
   TC - TEMPERATURE IN CELSIUS
  WCI - WIND CHILL INDEX
   HX - HEAT INDEX
  VSB - VISIBILITY




USA.gov is the U.S. government's official web portal to all federal, state and local government web resources and services.